TITAN 3C TRANSTAGE DEB, 1682

Orbit data source: Space-Track

TITAN 3C TRANSTAGE DEB, 1682 is space debris in LEO originally from a launch on Fri, 15 Oct 1965 UTC launched from the Air Force Eastern Test Range (AFETR). Debris objects in space refer to the collection of defunct objects orbiting the Earth. Examples of debris include non-operational satellites, rocket bodies, and fragments generated from explosions, collisions, or faulty payload assembly.

Loading next visibility...
TITAN 3C TRANSTAGE DEB details
Identifier
1682, 1965-082AV
Orbit
LEO
Last TLE update21 hours ago
Origin
Flag of USUSAF SSD (US)
ManufacturerUnknown
MissionSpacecraft
Bus & MotorUnknown
MassUnknown
Launch date (UTC)
1965-10-15 (59 years ago)
Launch vehicleUnknown
Launch site
Air Force Eastern Test Range (AFETR)
Object type
Payload
Rocket body
Debris
Shape & HBRUnknown
Radar Cross SectionMedium (>0.1 m² and <1 m²)

Expand to show TLE details & history

TLE from 21 hours ago
0 TITAN 3C TRANSTAGE DEB
1 01682U 65082AV  24356.38803904  .00004411  00000-0  68358-3 0  9996
2 01682  32.4131  13.9827 0050517 241.4965 118.0594 14.71188555110388
Epoch: 2024-12-21T09:18Z
Definitive object data (Epoch: 2024-12-21T09:18:46.573Z)
Latitude-0°
Longitude143.84873°
Altitude672.801 km
Speed7.514 km/s
True Right ascension00h 55m 55s
True Declination0° 00' 00"
Sunlit
Object was in daylight at TLE epoch
Visualization TLE readout
Latitude-27.37646°
Longitude84.43333°
Altitude641.185 km
Speed7.55 km/s
Apparent Right ascension19h 22m 24s
Apparent Declination-36° 21' 15"
Sunlit
Object is in daylight
Visualization observer readout
Local Sidereal Time05:17:50
Azimuth268.302° W
Elevation-65.374°
Doppler factor1
Orbital elements
Apogee altitude696.403 km
Perigee altitude625.285 km
Semi-major axis7,038.981 km
Eccentricity0.0050517
Inclination32.4131°
RAAN13.9827°
Arg. of periapsis241.4965°
True anomaly118.56872°
Mean anomaly118.0594°
Eccentric anomaly118.31421°
Mean motion3.67518 °/min
BSTAR0.00068358
Orbital period97.95 mins
Loading maneuver chart data...

TITAN 3C TRANSTAGE DEB Visibility forecast

Observer location: undefined°, undefined

Span
Click to sort rows by Start time (UTC) header in descending order
Start Az.
Max El. time (UTC)
Max El. Az.
Max El.
End time (UTC)
End Az.
7 mins2024-12-22 06:48:07.225Z232.032° WSW2024-12-22 06:52:07.225Z162.532° S28.236°2024-12-22 06:55:07.225Z117.425° SE
7 mins2024-12-22 08:32:07.225Z238.011° WSW2024-12-22 08:35:07.225Z183.924° SSW26.69°2024-12-22 08:39:07.225Z129.366° SE
4 mins2024-12-22 10:16:07.225Z227.684° WSW2024-12-22 10:18:07.225Z200.488° SSW14.905°2024-12-22 10:20:07.225Z174.395° S
7 mins2024-12-23 05:34:07.225Z216.141° SW2024-12-23 05:37:07.225Z166.726° S25.334°2024-12-23 05:41:07.225Z110.77° ESE
|